Orange, MA

9:23 AM EDT on June 29, 2017 (GMT -0400)
Orange Municipal

Weather History for KORE - April, 2013

Change the Weather History Date:

Tuesday, April 9, 2013

  Actual Average Record
Temperature  
Mean Temperature 51 °F -  
Max Temperature 64 °F 52 °F 70 °F (2002)
Min Temperature 39 °F 28 °F 21 °F (1997)
Degree Days  
Heating Degree Days 14    
Growing Degree Days 1 (Base 50)    
Moisture  
Dew Point 42 °F    
Average Humidity 76    
Maximum Humidity 100    
Minimum Humidity 41    
Precipitation  
Precipitation 0.02 in - - ()
Sea Level Pressure  
Sea Level Pressure 29.94 in    
Wind  
Wind Speed 3 mph (West)    
Max Wind Speed 24 mph    
Max Gust Speed 32 mph    
Visibility 7 miles    
Events Fog , Rain , Thunderstorm    
Averages and records for this station are not official NWS values.
T = Trace of Precipitation, MM = Missing Value Source: NWS Daily Summary

Daily Weather History Graph

Daily Weather History Graph

Search for Another Location

Airport or City:

Trip Planner

Search our weather history database for the weather conditions in past years. The results will help you decide how hot, cold, wet, or windy it might be!

Date:

Astronomy

Apr. 09, 2013 Rise Set
Actual Time 6:17 AM EDT 7:24 PM EDT
Civil Twilight 5:48 AM EDT 7:53 PM EDT
Nautical Twilight 5:14 AM EDT 8:28 PM EDT
Astronomical Twilight 4:37 AM EDT 9:04 PM EDT
Moon 5:39 AM EDT (4/9) 6:57 PM EDT (4/9)
Length of Visible Light 14h 04m
Length of Day
13h 07m
Waning Crescent, 1% of the Moon is Illuminated
Apr 9
Waning Crescent
Apr 10
New
Apr 18
First Quarter
Apr 25
Full
May 2
Last Quarter

Hourly Weather History & Observations

Time (EDT) Temp. Windchill Dew Point Humidity Pressure Visibility Wind Dir Wind Speed Gust Speed Precip Events Conditions
12:52 AM 46.0 °F - 37.9 °F 73% 30.03 in 10.0 mi Calm Calm - N/A   Mostly Cloudy
1:52 AM 45.0 °F - 37.9 °F 76% 30.00 in 10.0 mi Calm Calm - N/A   Mostly Cloudy
2:52 AM 48.9 °F - 39.0 °F 69% 29.95 in 10.0 mi ESE 3.5 mph - N/A   Mostly Cloudy
3:52 AM 50.0 °F - 39.9 °F 68% 29.94 in 10.0 mi Variable 3.5 mph - N/A   Overcast
4:48 AM 48.2 °F - 42.8 °F 82% 29.92 in 10.0 mi SE 8.1 mph - 0.01 in Thunderstorm Overcast
4:52 AM 46.9 °F - 43.0 °F 86% 29.91 in 9.0 mi SE 9.2 mph - 0.02 in Rain , Thunderstorm Light Rain
5:03 AM 46.4 °F 43.5 °F 42.8 °F 87% 29.90 in 10.0 mi SE 5.8 mph - 0.00 in Rain Light Rain
5:49 AM 42.8 °F - 42.8 °F 100% 29.90 in 1.8 mi Calm Calm - 0.00 in   Clear
5:52 AM 43.0 °F - 42.1 °F 97% 29.91 in 1.5 mi Calm Calm - 0.00 in   Clear
6:12 AM 42.8 °F - 42.8 °F 100% 29.91 in 0.5 mi Calm Calm - N/A Fog Fog
6:31 AM 41.0 °F - 41.0 °F 100% 29.91 in 0.2 mi Calm Calm - N/A Fog Fog
6:41 AM 39.2 °F - 39.2 °F 100% 29.91 in 0.2 mi Calm Calm - N/A Fog Fog
6:52 AM 39.9 °F - 39.9 °F 100% 29.91 in 0.2 mi Calm Calm - N/A Fog Fog
7:27 AM 42.8 °F - 42.8 °F 100% 29.90 in 1.2 mi Calm Calm - N/A   Overcast
7:33 AM 44.6 °F - 44.6 °F 100% 29.90 in 2.0 mi Calm Calm - N/A   Overcast
7:48 AM 44.6 °F - 44.6 °F 100% 29.90 in 3.0 mi Calm Calm - N/A   Overcast
7:52 AM 44.1 °F - 43.0 °F 96% 29.91 in 3.0 mi Calm Calm - N/A   Overcast
8:52 AM 48.0 °F - 46.0 °F 93% 29.89 in 6.0 mi Calm Calm - N/A   Overcast
9:47 AM 51.8 °F - 46.4 °F 82% 29.90 in 7.0 mi Calm Calm - N/A   Mostly Cloudy
9:52 AM 52.0 °F - 48.0 °F 86% 29.91 in 8.0 mi Calm Calm - N/A   Scattered Clouds
10:52 AM 61.0 °F - 46.0 °F 58% 29.91 in 10.0 mi West 11.5 mph 19.6 mph N/A   Mostly Cloudy
11:52 AM 63.0 °F - 42.1 °F 46% 29.92 in 10.0 mi WNW 23.0 mph 32.2 mph N/A   Scattered Clouds
12:52 PM 63.0 °F - 41.0 °F 45% 29.93 in 10.0 mi NW 24.2 mph 32.2 mph N/A   Clear
1:52 PM 63.0 °F - 39.9 °F 43% 29.95 in 10.0 mi WNW 18.4 mph 24.2 mph N/A   Clear
3:52 PM 63.0 °F - 39.0 °F 41% 29.96 in 10.0 mi WNW 12.7 mph 16.1 mph N/A   Clear
4:52 PM 62.1 °F - 39.9 °F 44% 29.97 in 10.0 mi WSW 8.1 mph - N/A   Clear
5:52 PM 61.0 °F - 39.0 °F 44% 29.99 in 10.0 mi West 6.9 mph - N/A   Clear
6:52 PM 59.0 °F - 39.0 °F 48% 29.99 in 10.0 mi NW 3.5 mph - N/A   Clear
7:52 PM 53.1 °F - 39.9 °F 61% 29.99 in 10.0 mi Calm Calm - N/A   Clear
8:52 PM 48.9 °F - 39.9 °F 71% 30.03 in 10.0 mi Calm Calm - N/A   Clear
9:52 PM 50.0 °F - 42.1 °F 74% 30.03 in 10.0 mi Calm Calm - N/A   Mostly Cloudy
10:52 PM 50.0 °F - 42.1 °F 74% 30.00 in 10.0 mi Calm Calm - N/A   Mostly Cloudy
11:52 PM 48.0 °F - 42.1 °F 80% 29.94 in 10.0 mi Calm Calm - N/A   Overcast